Wind_Speed
35 34 34 35 36 35 33 33 34 34 36 38 38 39 40 37 32 27 28 33 33 31 34 36 35 35 36 35 34 34 34 34 33 32 29 29 30 28 27 27 28 28 29 29 30 31 32 32 33 33 33 32 32 33 33 33 32 32 31 31 30 30 30 30 30 30 30 31 31 31 31 32 33 33
35 35 35 35 37 36 34 34 34 34 35 38 40 40 39 38 38 36 35 35 33 30 32 35 35 34 34 33 33 33 35 35 34 33 30 29 29 28 27 27 27 28 29 29 30 31 32 33 33 33 33 33 33 33 34 34 34 33 31 31 31 31 31 31 31 31 31 31 31 31 32 33 33 34
33 34 35 37 38 37 36 35 35 35 36 39 41 41 40 38 38 40 38 36 33 28 27 30 33 32 30 30 31 32 34 35 34 32 30 29 28 27 28 28 28 29 30 30 31 31 32 32 33 33 33 33 33 34 34 35 35 34 33 32 32 32 32 32 32 31 31 31 32 32 33 34 34 35
33 34 35 36 37 37 37 36 36 37 38 39 40 40 39 38 38 39 39 39 37 29 25 28 29 27 25 25 27 30 31 32 31 30 29 29 29 29 30 30 30 30 30 30 30 30 30 31 31 32 32 33 33 34 35 35 35 35 34 34 33 33 33 32 32 33 32 32 33 34 34 35 36 36
34 34 35 35 36 36 36 36 37 37 37 38 39 38 37 37 38 39 40 43 41 34 30 30 28 26 25 25 26 27 28 29 29 29 29 30 30 31 31 31 31 31 30 29 29 29 29 29 30 31 32 33 34 35 35 36 36 36 36 37 37 36 36 34 34 34 34 33 34 35 36 36 37 38
34 33 34 36 37 36 36 36 36 36 36 39 40 38 37 38 38 38 40 43 43 39 36 34 31 28 27 27 28 28 29 29 29 29 30 31 31 32 32 32 32 31 30 29 28 28 27 28 29 30 32 33 34 35 35 36 37 38 38 38 38 38 37 35 34 34 34 35 35 36 37 38 39 39
34 32 32 34 36 35 36 37 36 36 38 40 41 39 39 39 38 38 40 41 43 42 39 36 36 33 30 30 32 31 31 31 31 32 32 31 32 32 32 32 33 32 30 29 28 27 27 28 29 30 31 32 33 34 35 36 37 37 38 38 39 39 38 37 36 37 37 37 38 38 38 39 40 41
31 32 32 34 34 33 34 35 35 35 37 39 40 40 39 39 38 39 39 40 41 41 39 37 39 38 35 33 34 35 34 33 34 34 33 32 32 32 32 32 33 33 31 29 27 26 27 28 29 30 30 31 32 33 34 35 36 36 37 38 39 40 41 41 42 43 43 44 43 43 42 42 41 41
29 30 32 33 32 32 33 34 35 35 36 38 39 40 39 39 39 38 39 40 40 39 39 39 38 38 36 34 34 35 34 33 33 33 31 31 31 31 31 32 33 32 30 29 27 26 26 27 28 28 29 29 29 30 31 31 32 33 35 36 38 39 41 43 44 46 47 48 48 48 48 48 47 46
30 30 32 33 33 33 34 35 35 34 35 36 38 39 39 39 39 38 39 40 39 38 39 39 38 36 35 32 32 33 33 32 32 31 30 31 31 30 31 31 30 30 30 29 27 25 26 26 26 26 26 27 26 27 27 28 29 30 32 34 36 38 40 42 44 46 47 49 50 51 52 52 53 53
34 35 35 35 35 36 37 36 34 34 34 36 37 38 38 38 38 39 39 39 38 39 39 39 38 37 34 31 31 31 31 30 30 29 29 30 30 29 29 28 27 28 29 28 26 25 25 25 25 25 25 25 25 25 26 27 28 29 30 32 33 36 38 40 42 45 47 49 51 52 54 54 55 56
35 36 37 38 38 38 38 37 35 34 34 35 36 36 36 37 37 39 39 39 39 39 40 40 38 35 33 31 30 29 29 30 31 30 30 30 29 27 26 26 27 27 27 25 24 24 25 25 25 25 25 25 25 26 26 27 28 28 29 31 33 34 36 38 40 43 46 49 50 52 54 54 55 55
33 34 36 38 39 40 40 37 35 34 34 34 34 35 36 37 38 39 40 40 40 40 40 40 38 35 33 32 30 30 31 31 30 29 29 28 26 25 25 26 27 26 24 23 23 23 24 25 25 25 26 26 26 27 27 28 28 29 30 31 33 34 35 36 38 40 43 46 48 50 52 53 54 54
34 33 34 35 36 37 38 38 37 34 33 33 34 34 36 37 37 39 40 40 41 40 40 40 40 38 36 34 31 31 31 30 29 28 27 25 24 24 25 26 26 24 22 21 22 23 23 25 26 27 26 26 26 27 28 29 30 31 31 32 33 34 35 37 38 39 40 42 43 45 47 49 50 51
34 33 33 33 31 30 31 33 36 35 32 32 33 34 35 36 37 37 38 40 41 41 41 40 39 39 39 36 32 30 29 29 29 28 27 25 24 24 24 24 23 20 18 19 22 24 24 25 27 28 27 26 27 28 29 31 32 32 33 33 34 35 36 37 38 39 40 40 41 42 44 45 46 48
32 31 31 30 29 29 27 26 28 31 31 31 32 34 35 35 36 37 36 37 38 39 41 41 39 39 39 36 33 31 30 29 29 28 27 26 25 24 23 23 22 17 15 19 23 25 24 25 27 29 28 27 27 29 30 31 32 33 33 34 35 35 36 36 37 38 39 40 41 41 42 43 43 44
33 31 29 28 29 30 27 23 23 26 28 30 32 34 34 35 36 37 36 35 35 34 37 39 40 40 39 36 34 32 30 29 29 28 27 26 24 22 22 22 20 15 14 18 23 26 26 24 27 29 29 28 28 30 31 32 33 34 34 35 35 35 34 35 36 36 37 38 40 41 41 42 43 43
36 34 32 32 32 31 28 25 25 27 29 31 33 33 34 35 36 36 36 36 35 33 33 35 37 38 37 35 32 30 29 30 30 28 26 24 23 22 21 21 18 14 13 16 22 27 27 24 27 31 30 28 30 31 32 33 33 34 35 35 34 33 33 34 34 35 36 38 39 41 41 42 44 44
36 36 36 35 33 32 30 27 27 29 30 31 33 34 34 35 35 34 35 35 34 33 32 33 34 34 33 32 30 28 28 29 28 25 24 22 21 21 20 19 17 14 13 15 20 26 27 25 28 32 30 30 32 33 32 33 34 35 35 34 34 34 34 35 35 36 37 38 39 40 42 44 44 44
35 36 37 35 33 33 33 30 29 29 29 30 32 34 35 35 34 33 33 32 31 31 29 28 30 31 30 30 29 27 27 26 24 23 22 20 19 19 18 17 16 15 14 15 19 26 28 26 29 32 32 32 34 34 33 33 34 35 35 35 36 36 37 37 37 36 37 38 39 40 43 45 45 44
35 37 35 32 33 35 33 31 29 28 28 29 32 33 36 36 35 34 31 28 27 26 25 25 28 30 29 27 26 25 25 25 23 21 20 17 16 17 17 17 16 16 16 16 19 25 28 26 28 33 34 34 36 36 34 34 35 36 37 38 39 40 39 38 37 36 36 37 39 40 42 43 42 41
34 34 30 26 28 31 31 30 29 28 28 29 31 34 36 37 36 34 31 28 25 23 23 24 26 28 28 27 26 26 24 22 20 18 17 15 15 16 17 17 17 17 18 17 17 22 26 27 28 33 36 38 38 36 35 36 38 39 42 42 41 41 40 38 37 36 36 37 38 40 42 42 39 38
30 29 25 24 25 27 28 28 27 27 28 29 30 33 36 37 36 35 32 30 28 25 23 24 25 27 28 28 26 24 21 18 17 16 15 15 16 17 16 17 17 18 19 19 19 22 26 27 27 30 35 39 41 39 38 40 41 42 43 43 42 41 40 39 37 35 35 35 35 38 41 41 40 39
27 26 24 24 26 27 27 26 23 24 26 27 28 31 34 36 36 35 31 30 30 29 28 27 27 28 27 25 23 20 18 17 16 15 16 16 16 16 16 16 18 18 20 20 21 23 26 27 27 28 30 34 40 43 44 43 43 43 43 43 43 43 43 41 39 35 34 35 34 35 37 39 40 41
25 24 24 25 25 25 25 22 19 21 26 28 27 29 32 33 34 33 30 29 30 31 30 28 27 26 24 22 21 19 18 18 17 16 17 16 15 16 16 17 18 19 19 20 21 22 25 26 27 28 28 31 38 44 47 47 44 42 43 44 44 45 45 43 40 38 37 38 37 37 38 38 39 40
25 23 24 23 22 22 22 19 16 20 26 28 26 24 27 30 30 29 28 28 30 31 29 27 26 25 24 22 21 20 19 18 17 17 16 15 15 15 15 16 17 18 19 20 20 22 24 25 26 27 29 32 36 41 46 48 46 42 43 44 44 45 44 41 40 40 39 40 41 40 40 40 39 39
25 24 22 20 19 19 19 17 16 20 27 29 24 21 24 28 28 27 27 28 29 29 28 27 26 25 24 22 21 20 19 17 16 15 14 14 14 14 14 15 16 17 17 18 20 21 23 25 25 26 28 30 35 39 43 46 45 43 43 44 44 44 42 40 40 41 41 42 42 41 41 42 42 40
21 20 19 17 16 16 17 18 19 22 28 28 21 18 24 27 26 26 27 27 27 28 28 27 26 24 23 22 20 18 17 15 14 13 12 12 12 12 13 14 15 16 16 17 18 20 22 24 25 25 26 28 32 36 40 44 44 42 42 43 43 43 41 40 40 42 43 44 44 43 42 42 43 42
11 11 13 13 14 15 17 19 20 24 28 25 18 19 24 25 24 25 25 25 27 28 27 26 24 23 22 20 18 16 15 13 12 10 10 10 10 11 12 13 14 14 15 16 17 18 20 22 23 23 25 27 30 33 38 42 43 40 38 40 44 43 41 40 42 44 46 46 46 44 41 40 43 46
7 8 10 13 15 16 18 20 22 25 26 22 19 23 25 23 22 23 24 25 26 25 25 24 23 22 19 18 16 15 13 11 9 8 8 9 9 11 12 13 13 13 14 15 16 17 19 20 21 22 25 27 30 32 34 37 41 39 34 36 42 44 42 42 43 44 46 47 47 45 43 44 47 50
9 10 14 17 18 18 21 23 23 25 25 22 21 23 23 21 21 22 23 24 24 24 24 23 22 20 18 17 15 13 10 9 8 7 7 7 9 11 12 13 14 13 13 14 15 17 18 19 20 23 25 28 30 32 32 34 37 38 33 32 37 42 43 43 44 43 44 46 48 48 47 48 49 48
14 17 20 21 22 23 24 24 25 26 25 22 19 19 20 19 20 21 22 23 24 23 23 21 20 18 17 16 14 11 9 8 6 6 6 7 8 10 11 13 14 14 14 14 15 16 18 19 21 23 25 27 29 30 32 33 33 32 33 33 35 39 41 42 44 45 44 45 48 50 49 49 49 47
19 22 23 23 25 26 25 25 26 27 24 21 18 17 18 19 19 21 23 24 23 22 21 20 19 17 15 14 12 10 8 7 5 5 6 7 8 10 11 12 14 15 16 16 16 17 18 19 21 23 24 26 28 28 30 32 30 29 32 34 34 37 40 41 44 46 45 45 48 51 51 50 49 47
21 23 23 24 26 26 25 25 26 26 23 21 19 17 17 19 21 22 23 24 23 22 21 20 18 16 14 12 11 9 8 6 5 5 5 7 8 10 11 12 13 15 17 18 19 19 20 20 22 23 24 25 27 26 25 27 30 33 33 33 34 37 40 41 43 45 45 44 45 49 53 54 52 48
21 23 24 25 26 25 25 25 25 25 23 21 19 17 18 21 23 24 24 23 22 21 20 18 17 16 13 12 10 9 7 6 5 5 6 8 9 10 12 14 15 16 17 19 20 21 22 23 24 26 27 27 29 28 22 23 31 36 35 33 34 37 41 42 43 45 46 45 43 44 50 56 56 49
22 24 24 25 25 25 25 25 25 24 22 20 17 16 19 23 24 24 23 23 21 20 19 17 16 15 13 12 10 8 6 6 6 6 8 9 10 12 13 15 16 17 18 19 20 21 23 24 24 26 29 31 33 33 28 25 29 33 34 34 35 37 40 42 43 45 46 46 44 43 45 52 55 48
21 24 24 24 25 25 25 25 24 22 20 17 15 16 19 23 24 23 22 22 20 19 18 17 15 14 13 11 10 8 7 7 7 8 9 10 11 13 15 16 17 19 19 20 21 22 23 24 24 25 28 30 33 36 37 33 28 26 28 34 36 37 38 41 43 46 46 46 45 43 42 48 53 46
17 21 22 23 24 24 24 23 22 20 18 16 16 17 20 22 23 22 21 21 19 18 17 16 15 14 13 11 10 9 8 8 8 9 10 11 12 13 15 16 18 19 20 21 21 22 23 24 24 24 26 28 30 35 39 40 35 27 24 28 34 37 37 38 41 45 47 46 45 44 42 45 49 44
14 18 20 21 22 23 23 22 20 18 16 16 17 18 20 22 22 21 20 20 19 18 17 16 15 14 13 12 11 10 10 9 10 10 11 12 13 14 16 17 18 20 21 22 22 22 23 24 25 25 26 27 29 32 35 39 40 36 28 26 30 34 36 37 38 42 44 44 44 45 46 46 46 40
12 15 18 19 19 20 20 20 19 17 15 15 16 18 20 21 21 20 19 18 18 18 18 17 16 15 14 13 12 11 11 10 11 12 12 13 14 15 17 18 19 20 22 23 23 23 23 24 25 25 26 27 29 31 33 35 39 39 35 30 28 29 32 34 36 38 40 40 41 43 46 48 47 41
9 12 15 16 17 17 17 17 17 15 14 15 16 18 20 21 20 19 18 18 18 18 18 17 16 15 14 14 13 13 12 12 12 13 13 14 15 16 18 19 20 21 23 24 25 25 25 25 25 25 26 28 29 30 32 34 38 40 38 34 30 27 27 29 31 33 34 34 35 38 41 43 44 41
8 10 12 13 14 15 15 15 15 15 15 15 17 19 20 21 20 18 18 18 19 19 18 17 17 16 15 15 14 14 14 14 14 14 15 16 17 18 19 20 21 22 24 25 26 26 26 26 27 27 27 28 29 29 30 33 37 40 40 38 35 31 28 27 27 27 28 27 29 33 36 38 39 39
9 9 10 12 13 14 14 14 15 15 16 17 18 20 21 21 20 19 19 19 19 19 18 18 18 17 16 15 15 15 15 15 15 16 16 17 18 19 19 21 22 23 25 26 27 28 28 28 29 30 29 29 28 28 31 34 36 39 40 40 39 36 33 30 27 25 23 22 24 26 27 27 29 32
8 8 9 10 11 12 13 14 15 16 16 17 19 20 21 21 19 19 19 19 18 18 18 18 18 18 17 16 16 16 17 17 17 17 18 18 19 20 20 21 22 23 25 27 28 29 29 29 29 30 30 30 29 29 31 34 36 38 39 39 39 39 38 35 33 29 25 21 22 25 24 22 23 26
8 7 6 7 7 9 10 12 13 14 16 17 19 21 21 21 20 19 18 17 17 17 17 18 18 18 18 17 18 18 18 18 18 18 19 19 20 21 21 22 23 24 25 26 28 29 30 31 30 30 30 30 29 29 30 32 34 36 38 38 38 38 38 38 37 35 32 27 24 26 27 25 22 22
Wind_Direction
247 246 243 243 245 243 241 240 236 233 235 238 239 241 241 236 227 220 222 229 233 234 240 243 243 243 244 245 247 247 247 247 249 251 252 254 257 257 255 254 255 254 255 258 260 261 263 264 266 266 267 268 269 271 272 273 273 273 271 271 271 270 269 268 267 267 266 265 266 266 266 267 266 265
249 247 243 243 245 244 240 239 238 235 237 242 244 245 246 242 234 227 227 233 235 235 240 245 246 245 245 245 244 244 245 246 248 250 252 253 254 256 256 254 254 254 256 258 260 262 263 264 265 266 267 268 269 271 272 273 272 272 272 271 271 270 270 270 268 268 268 267 268 267 267 267 267 266
252 251 250 247 248 246 242 238 237 236 239 244 248 249 248 245 240 233 230 236 240 235 235 242 245 245 245 243 241 241 243 245 247 247 249 251 252 254 256 255 255 257 259 260 260 261 262 264 265 266 267 268 270 271 272 273 272 272 271 270 270 269 269 269 268 268 268 268 268 268 268 268 267 267
253 254 255 253 252 252 247 241 238 238 241 244 246 249 249 247 243 236 231 235 239 235 233 240 243 240 238 237 236 236 239 241 242 243 244 248 251 254 256 258 259 260 261 261 261 261 263 264 266 267 268 269 270 271 272 273 273 272 271 270 270 270 269 268 268 267 268 268 269 269 269 268 268 267
252 253 255 254 256 256 251 246 243 241 241 243 243 245 246 245 243 237 232 235 237 234 232 239 244 239 232 230 231 232 236 240 241 241 243 246 251 255 258 261 263 263 263 262 262 263 264 265 266 267 268 269 270 271 272 273 272 271 271 271 271 271 270 269 268 267 267 268 268 268 269 268 267 267
251 250 251 254 257 258 255 252 249 243 240 243 245 245 245 246 244 238 235 236 236 231 229 233 239 238 231 229 232 234 236 241 245 247 248 249 252 256 260 263 265 267 267 267 267 268 268 267 267 267 268 269 270 271 272 272 271 271 271 272 272 272 271 269 268 268 267 268 268 268 268 267 267 266
249 246 246 250 255 257 257 258 256 248 243 245 248 248 248 249 247 241 238 237 235 231 228 229 234 236 233 232 236 238 239 241 248 253 254 255 256 259 262 265 268 270 271 272 272 272 271 270 269 269 269 271 272 272 272 272 272 272 273 273 273 272 271 269 268 268 268 268 268 268 267 266 266 265
246 245 245 248 250 249 251 256 258 255 251 251 251 251 250 248 247 244 239 236 233 231 228 227 232 236 235 235 237 240 243 244 247 252 254 256 257 259 263 266 268 271 272 274 273 272 272 271 270 271 271 271 272 271 271 272 273 274 274 275 275 274 273 273 272 272 272 271 271 270 268 267 265 264
244 245 246 248 247 243 245 254 259 258 258 257 256 254 251 249 247 243 238 234 232 231 229 227 230 233 234 236 237 239 243 244 247 249 251 253 255 257 261 264 268 271 273 273 272 271 270 270 269 269 269 269 269 270 271 273 274 275 276 277 277 277 277 276 275 274 274 273 272 272 270 268 267 266
246 247 248 249 246 244 249 256 260 260 259 257 255 253 251 250 247 240 237 236 231 229 230 228 228 230 230 232 234 236 238 240 245 248 249 251 254 256 259 263 269 273 275 275 275 274 272 270 268 267 267 268 270 272 273 274 275 276 277 278 278 278 278 276 276 274 273 273 272 272 271 270 269 268
251 251 251 249 247 248 252 256 258 259 257 253 252 250 247 245 242 237 236 236 231 228 230 230 228 228 227 226 228 233 235 238 242 245 247 249 253 256 259 263 268 271 275 279 281 280 276 273 271 269 270 271 273 275 275 276 276 276 277 278 278 278 278 277 276 275 274 273 272 271 270 269 269 268
255 254 252 250 248 249 252 254 254 256 256 253 252 249 243 239 238 235 234 233 230 229 231 230 226 223 222 222 223 227 231 234 238 241 245 248 251 252 254 259 263 267 273 279 280 278 275 274 274 274 275 276 277 278 278 277 277 278 280 281 281 280 279 278 276 274 273 272 271 270 269 269 269 268
253 253 253 253 250 249 251 253 252 253 254 255 255 251 243 236 234 235 234 233 231 230 229 228 223 217 217 218 217 220 225 232 238 242 246 248 246 245 249 255 262 266 272 275 274 273 274 277 279 280 281 283 285 285 284 283 283 285 287 287 287 286 284 282 279 276 274 272 271 270 269 269 268 267
252 250 252 256 255 252 252 251 250 251 252 254 257 255 248 240 236 233 233 233 232 230 226 225 221 217 217 216 216 220 227 235 240 240 239 239 238 242 250 257 263 268 271 271 270 273 278 283 285 287 288 290 292 292 292 293 294 294 295 294 293 291 289 287 284 281 278 275 272 269 268 267 267 266
254 251 250 254 256 255 253 251 248 247 248 250 254 255 252 248 244 239 235 234 233 229 226 224 220 219 219 217 216 220 226 233 236 234 231 231 236 244 252 258 263 267 268 269 272 276 281 287 289 290 292 294 295 296 296 298 299 299 300 299 296 295 293 291 288 284 280 277 274 271 269 267 265 264
252 250 248 250 253 255 258 257 252 246 244 246 250 252 252 250 248 246 243 241 237 232 229 224 219 219 221 218 216 219 225 230 231 229 228 231 239 246 251 257 262 262 263 269 277 281 283 287 289 290 292 295 296 296 297 299 300 301 301 300 299 298 295 291 287 283 279 276 274 271 269 267 265 264
251 247 244 246 251 256 261 261 255 248 244 244 247 249 249 248 246 246 246 246 244 241 236 230 224 223 222 219 219 224 230 230 226 225 229 235 243 248 252 259 263 260 259 271 282 285 284 288 290 290 293 297 298 298 299 301 303 303 303 303 302 300 297 292 288 284 280 276 273 271 268 266 265 264
252 247 244 249 254 258 260 258 253 250 246 243 243 242 242 243 243 242 242 241 242 242 239 235 230 226 223 222 226 231 232 230 226 228 234 240 246 251 254 259 262 261 265 277 285 286 287 291 294 293 297 301 300 300 302 303 305 305 306 306 305 303 301 297 293 288 283 278 276 273 269 268 266 265
254 250 249 254 258 257 256 253 252 251 246 242 239 235 235 238 238 238 238 236 236 235 234 233 231 227 224 226 230 231 230 231 231 234 239 244 249 256 258 260 262 265 268 274 282 287 291 297 298 297 300 303 301 300 303 305 306 308 308 308 308 307 305 302 297 291 285 280 277 273 270 269 268 266
255 251 248 252 256 254 251 249 250 251 247 242 238 233 232 233 234 235 235 233 232 233 232 228 226 225 224 227 230 229 229 231 231 235 241 246 252 256 258 261 266 270 273 278 287 292 295 300 300 299 301 303 302 303 306 307 308 308 309 310 312 312 309 306 301 295 289 283 278 274 272 270 268 267
256 253 248 250 253 252 250 250 250 249 246 242 238 233 229 228 228 230 230 226 223 227 227 220 219 223 223 224 226 226 227 230 233 238 245 248 250 254 259 265 272 278 283 289 294 292 295 301 302 301 304 305 303 305 308 308 309 311 313 316 317 315 313 309 304 298 291 286 280 275 271 268 267 268
257 255 251 250 253 252 251 251 248 244 242 240 235 229 225 222 223 225 223 215 206 209 215 215 215 219 220 218 219 221 225 232 236 241 246 246 248 254 262 270 279 285 289 293 293 290 295 302 304 305 308 307 304 307 310 312 314 315 317 318 317 315 313 309 306 301 296 292 285 278 272 267 265 268
254 251 248 245 246 249 251 251 245 237 236 236 231 225 221 218 220 222 219 211 198 193 200 206 207 212 214 215 219 224 228 233 240 245 246 245 248 254 263 272 279 287 293 298 298 295 298 302 304 308 312 309 308 311 313 313 314 314 315 316 315 314 313 310 308 304 300 295 288 282 276 268 265 267
248 246 244 241 241 246 248 246 239 227 226 230 227 222 220 218 218 218 215 209 200 193 196 203 206 210 213 216 222 227 231 240 248 249 246 244 249 257 266 273 278 285 292 297 299 298 297 300 304 308 310 307 306 309 311 311 312 313 315 316 317 316 315 315 313 309 304 301 295 289 281 273 268 267
243 243 241 239 240 242 237 231 226 213 212 220 223 221 221 221 218 216 212 205 200 198 202 206 207 210 214 217 222 229 237 246 249 245 242 246 253 261 269 276 281 287 293 295 296 296 296 300 304 307 307 303 303 305 307 308 310 314 316 318 319 317 318 319 317 312 309 306 303 298 291 283 277 270
237 241 243 244 241 233 222 216 210 200 204 216 222 220 220 219 216 214 209 203 200 202 204 205 206 209 214 218 225 233 240 242 239 238 243 249 257 265 273 280 285 290 294 296 297 297 296 299 302 304 304 303 302 303 305 306 310 316 318 319 319 318 319 321 318 314 312 309 306 303 298 292 285 275
234 240 245 243 233 222 213 204 193 189 199 212 218 214 212 213 213 211 207 203 202 201 202 204 206 211 217 223 230 235 235 232 233 238 247 254 262 271 278 282 287 292 297 298 298 296 296 297 301 302 302 302 302 303 304 307 312 317 319 320 318 317 320 322 318 316 314 311 307 305 302 297 291 282
237 243 244 236 217 205 199 191 182 184 197 208 211 202 202 209 212 209 205 203 201 199 201 206 211 217 223 226 228 227 223 226 234 242 250 259 268 276 281 287 293 298 300 300 297 296 295 296 299 300 299 300 301 303 306 309 313 317 320 320 317 317 321 322 319 316 315 313 311 309 304 298 292 286
232 238 234 216 195 187 185 179 175 184 196 204 201 190 195 206 209 205 203 202 201 202 206 211 216 220 220 217 215 216 219 226 234 241 252 263 272 279 286 292 296 299 301 300 298 297 295 296 298 299 299 301 303 305 309 311 313 317 320 319 317 317 320 320 318 317 317 315 313 309 300 291 288 286
192 203 201 187 178 176 174 173 177 185 191 192 185 183 193 203 204 201 201 201 201 205 208 211 213 211 206 203 206 212 218 225 232 243 255 267 278 284 290 296 298 302 305 304 302 300 298 300 304 304 304 306 306 309 312 312 312 315 319 318 315 315 318 319 316 315 316 316 311 305 297 293 292 291
176 174 170 168 168 168 170 174 179 181 181 181 182 186 195 201 199 198 199 198 200 204 205 203 202 198 196 200 205 209 214 222 232 246 260 274 287 295 302 306 309 312 314 311 310 308 307 309 310 309 309 310 310 313 316 312 310 313 318 319 314 312 316 319 315 312 313 313 310 306 303 301 299 295
161 159 160 163 165 167 171 175 177 176 177 182 186 190 194 195 194 195 196 197 199 199 196 191 190 190 193 198 200 203 210 220 231 249 269 286 298 305 310 314 316 318 318 318 318 316 315 316 314 313 313 313 314 317 317 312 310 314 318 320 317 313 315 317 315 313 313 311 309 309 307 304 303 300
160 160 163 165 167 171 174 176 177 178 180 182 183 186 190 190 191 192 193 193 192 189 185 185 186 188 190 191 193 200 208 217 234 258 279 295 305 311 316 320 323 324 324 324 325 322 319 319 317 316 316 315 316 320 317 313 315 319 321 321 318 314 314 315 315 316 316 313 311 312 310 308 309 308
167 166 167 169 172 176 177 177 178 181 183 184 182 184 187 189 187 186 184 183 182 181 183 186 187 187 187 188 193 201 208 220 244 267 287 302 310 316 321 325 327 328 328 329 329 327 325 323 320 317 318 317 316 318 319 317 321 325 325 322 317 313 315 319 319 319 319 317 314 312 311 313 315 314
171 170 172 174 176 178 180 180 181 183 187 189 188 186 186 184 182 181 179 179 180 181 183 184 186 188 189 191 196 204 213 231 255 275 292 305 315 321 326 328 329 331 331 330 331 332 329 328 327 324 323 323 320 319 324 328 329 329 325 321 318 318 320 322 322 320 321 321 318 314 313 315 318 318
173 175 177 178 179 181 184 185 186 188 191 195 197 195 188 182 180 181 180 180 182 184 184 184 186 189 191 195 201 211 224 242 263 282 296 309 319 323 326 328 329 331 332 331 333 334 331 332 334 331 329 329 326 323 325 331 332 329 324 321 322 324 324 324 324 323 323 323 321 317 314 314 317 321
180 180 182 182 183 186 188 188 190 193 197 201 207 204 194 186 183 182 181 181 183 185 186 189 191 193 196 201 208 219 233 249 269 287 299 310 316 319 323 327 328 329 330 330 331 332 333 335 337 334 330 329 325 321 321 326 331 333 330 327 327 328 328 328 326 324 324 324 321 319 315 313 317 321
191 188 187 187 187 189 192 193 196 200 204 207 207 201 193 188 186 184 183 185 186 186 189 194 197 199 202 208 216 227 239 254 272 285 295 304 312 316 320 324 325 325 326 327 328 331 333 335 335 333 329 325 320 318 319 322 324 330 335 333 330 331 332 330 325 323 324 324 322 319 315 313 317 322
200 195 194 194 193 194 197 199 201 205 207 207 203 197 192 189 187 187 189 191 192 193 198 202 203 205 210 216 225 236 247 259 272 282 292 301 308 313 316 318 320 321 322 323 326 329 332 333 332 330 326 321 318 317 317 316 318 323 332 337 335 334 334 331 325 323 325 326 323 319 316 315 318 324
203 201 200 199 199 200 201 203 206 208 208 206 203 199 195 191 191 193 194 195 197 200 204 207 209 212 219 225 232 243 253 263 273 282 292 298 304 309 311 313 316 317 318 321 324 327 330 331 328 326 323 318 316 317 315 314 317 322 329 335 337 337 336 334 330 327 328 328 325 321 319 319 321 325
199 204 205 204 205 207 207 207 211 214 212 209 206 201 197 196 197 200 201 202 204 205 208 211 215 219 226 232 238 247 257 265 273 281 289 295 300 305 307 309 313 315 316 319 322 324 326 327 325 323 321 320 320 321 319 318 320 323 327 331 334 336 337 335 332 330 330 331 330 326 322 320 320 321
187 195 201 204 206 209 211 213 217 218 216 213 209 203 200 200 201 204 206 207 209 211 213 217 222 227 232 237 243 252 260 267 275 282 289 294 298 302 305 308 311 314 315 317 319 321 323 324 325 324 324 324 326 325 321 320 322 323 326 329 331 334 336 335 332 331 333 336 339 334 326 321 319 319
183 188 196 202 207 212 215 217 219 220 218 216 211 206 204 204 205 208 210 211 213 216 219 223 228 233 238 242 248 257 263 269 276 283 287 292 296 298 302 306 308 311 313 314 316 320 323 325 326 326 325 326 327 325 321 322 323 324 327 330 332 334 336 335 331 330 333 340 346 341 329 317 311 310
193 192 194 200 207 215 218 219 220 219 218 216 212 208 208 209 210 212 215 217 219 222 227 231 235 239 244 249 254 261 267 272 277 282 286 290 293 296 300 304 306 308 311 313 316 319 322 324 325 325 324 325 326 325 323 324 324 325 328 332 334 335 337 337 334 332 333 340 346 344 334 315 298 292
212 205 201 204 209 214 218 221 223 222 219 215 212 210 211 212 214 217 220 224 226 230 234 238 241 244 248 253 257 262 268 272 277 281 285 289 292 296 300 303 305 308 311 313 315 318 321 322 323 324 323 324 325 325 324 323 324 326 329 332 334 336 338 339 339 337 336 338 344 347 343 331 310 290
Height
1367 1369 1371 1372 1373 1375 1377 1378 1379 1379 1379 1380 1381 1382 1385 1389 1393 1394 1394 1393 1393 1395 1396 1398 1400 1402 1403 1405 1408 1409 1410 1411 1412 1413 1416 1417 1417 1419 1422 1423 1424 1424 1425 1426 1427 1428 1428 1429 1429 1430 1430 1431 1432 1432 1432 1433 1433 1433 1433 1434 1434 1435 1435 1436 1437 1438 1438 1439 1439 1440 1440 1440 1440 1440
1362 1363 1366 1367 1368 1370 1372 1373 1374 1375 1375 1375 1376 1377 1379 1383 1387 1389 1389 1389 1390 1393 1393 1393 1395 1398 1400 1402 1404 1405 1405 1407 1408 1410 1412 1413 1414 1415 1417 1419 1420 1421 1422 1423 1423 1424 1424 1424 1425 1425 1426 1426 1427 1427 1427 1427 1428 1428 1428 1428 1429 1429 1430 1431 1432 1432 1433 1433 1433 1434 1434 1434 1435 1435
1357 1358 1360 1362 1363 1365 1366 1368 1370 1370 1370 1370 1370 1372 1374 1376 1380 1383 1386 1386 1387 1390 1391 1390 1390 1393 1396 1399 1400 1401 1401 1402 1404 1406 1408 1409 1410 1411 1412 1414 1416 1417 1418 1419 1420 1420 1420 1420 1420 1421 1421 1421 1422 1422 1422 1422 1422 1423 1423 1423 1423 1424 1424 1425 1426 1427 1427 1427 1427 1428 1428 1428 1429 1429
1352 1353 1355 1356 1358 1360 1361 1362 1364 1365 1365 1365 1365 1367 1369 1371 1374 1378 1381 1382 1384 1387 1388 1387 1387 1389 1393 1395 1396 1397 1397 1398 1400 1402 1404 1404 1405 1406 1407 1409 1411 1413 1414 1415 1415 1416 1416 1416 1416 1416 1416 1417 1417 1416 1416 1417 1417 1417 1417 1417 1418 1418 1419 1420 1421 1421 1421 1421 1422 1422 1422 1423 1423 1424
1347 1348 1349 1351 1352 1354 1356 1357 1358 1359 1360 1360 1361 1362 1364 1366 1368 1372 1375 1376 1379 1383 1385 1385 1384 1386 1389 1390 1392 1394 1394 1395 1396 1398 1400 1400 1401 1401 1402 1404 1406 1407 1409 1410 1411 1411 1411 1411 1412 1412 1412 1411 1411 1411 1411 1411 1411 1411 1411 1411 1412 1412 1413 1414 1414 1415 1415 1416 1416 1416 1417 1417 1418 1418
1342 1342 1344 1345 1347 1348 1350 1351 1353 1355 1355 1355 1356 1358 1359 1360 1363 1366 1368 1371 1373 1377 1380 1381 1381 1382 1384 1386 1388 1390 1391 1392 1393 1394 1395 1396 1396 1397 1398 1399 1400 1402 1404 1405 1406 1406 1406 1407 1406 1406 1406 1406 1406 1406 1406 1406 1405 1405 1405 1405 1406 1406 1407 1407 1408 1408 1409 1409 1410 1410 1411 1411 1412 1412
1337 1338 1339 1340 1341 1343 1343 1345 1347 1349 1350 1350 1351 1353 1354 1356 1358 1361 1364 1366 1368 1371 1374 1377 1377 1377 1380 1382 1384 1386 1387 1389 1390 1390 1390 1391 1392 1392 1393 1394 1395 1397 1398 1400 1401 1401 1401 1401 1401 1401 1401 1401 1401 1401 1400 1400 1400 1400 1400 1400 1400 1400 1401 1401 1401 1401 1402 1402 1402 1403 1403 1404 1405 1405
1333 1333 1334 1335 1336 1338 1338 1339 1341 1343 1345 1346 1347 1349 1350 1351 1353 1356 1359 1362 1364 1367 1370 1372 1373 1374 1375 1377 1380 1382 1383 1384 1385 1386 1387 1387 1388 1388 1389 1390 1390 1392 1393 1395 1396 1396 1396 1396 1396 1396 1396 1396 1395 1395 1395 1395 1394 1394 1394 1394 1394 1394 1394 1394 1394 1394 1394 1394 1394 1395 1395 1396 1397 1397
1329 1329 1329 1330 1332 1332 1333 1334 1336 1338 1340 1342 1343 1344 1345 1347 1348 1351 1354 1357 1360 1363 1365 1367 1369 1370 1372 1373 1375 1377 1379 1380 1381 1382 1383 1383 1384 1384 1385 1385 1385 1387 1388 1389 1391 1392 1391 1391 1391 1391 1391 1391 1390 1390 1390 1390 1390 1389 1389 1389 1388 1388 1388 1388 1388 1387 1387 1387 1387 1387 1387 1388 1388 1389
1325 1324 1324 1326 1326 1327 1328 1329 1331 1333 1335 1337 1338 1339 1341 1342 1344 1346 1348 1352 1355 1358 1361 1363 1365 1366 1368 1369 1370 1372 1374 1375 1376 1378 1379 1379 1379 1380 1380 1380 1381 1382 1382 1384 1385 1386 1386 1386 1386 1386 1386 1386 1386 1386 1386 1386 1385 1385 1384 1384 1383 1382 1382 1381 1381 1381 1380 1380 1380 1380 1380 1380 1380 1381
1319 1319 1320 1321 1321 1321 1322 1325 1327 1329 1330 1332 1333 1335 1336 1338 1340 1342 1344 1346 1350 1354 1356 1359 1361 1362 1363 1364 1365 1367 1370 1371 1372 1374 1375 1375 1375 1376 1376 1376 1377 1377 1377 1379 1380 1380 1380 1380 1380 1380 1381 1381 1381 1381 1381 1381 1381 1380 1380 1379 1378 1377 1376 1375 1375 1374 1374 1373 1373 1373 1372 1372 1373 1373
1314 1314 1314 1315 1316 1316 1317 1319 1322 1324 1325 1327 1328 1330 1332 1333 1335 1337 1339 1341 1344 1348 1351 1354 1357 1359 1359 1360 1361 1362 1364 1366 1367 1369 1371 1371 1372 1372 1372 1372 1373 1373 1374 1375 1375 1375 1375 1375 1375 1375 1375 1376 1376 1376 1376 1376 1376 1375 1375 1374 1373 1372 1371 1370 1369 1368 1367 1367 1366 1366 1365 1365 1365 1366
1309 1308 1309 1309 1310 1311 1312 1314 1317 1319 1320 1322 1323 1325 1327 1329 1330 1332 1334 1336 1338 1342 1346 1350 1353 1355 1355 1355 1356 1356 1357 1359 1362 1366 1367 1368 1368 1368 1368 1368 1369 1370 1371 1371 1371 1370 1370 1370 1370 1370 1370 1371 1371 1371 1371 1371 1370 1370 1369 1368 1367 1366 1365 1365 1364 1362 1361 1361 1360 1359 1359 1358 1358 1358
1304 1304 1304 1304 1305 1306 1308 1310 1312 1314 1316 1317 1318 1320 1322 1324 1326 1327 1330 1332 1334 1336 1340 1343 1347 1349 1350 1350 1351 1351 1353 1356 1359 1362 1364 1364 1364 1364 1363 1364 1365 1366 1368 1367 1366 1365 1366 1365 1365 1365 1365 1366 1366 1365 1365 1365 1364 1364 1363 1362 1361 1361 1360 1358 1357 1356 1355 1354 1353 1353 1352 1352 1351 1351
1299 1299 1300 1300 1301 1302 1303 1304 1306 1308 1311 1312 1314 1316 1317 1319 1321 1323 1325 1327 1329 1332 1334 1337 1342 1344 1345 1346 1347 1348 1350 1353 1355 1357 1359 1361 1360 1359 1359 1359 1361 1363 1364 1363 1361 1361 1362 1361 1360 1360 1361 1361 1361 1361 1360 1360 1359 1359 1358 1357 1356 1355 1354 1353 1351 1350 1349 1348 1347 1346 1345 1345 1344 1344
1294 1295 1295 1296 1296 1297 1298 1300 1301 1303 1305 1307 1309 1311 1312 1314 1316 1318 1321 1323 1325 1328 1330 1332 1336 1338 1340 1342 1343 1344 1346 1349 1351 1353 1355 1356 1356 1355 1355 1355 1357 1360 1361 1359 1357 1356 1357 1358 1357 1356 1357 1357 1357 1356 1355 1355 1354 1354 1353 1352 1351 1350 1348 1347 1345 1344 1342 1341 1340 1340 1339 1338 1338 1337
1289 1290 1291 1292 1292 1293 1294 1297 1297 1299 1300 1302 1304 1306 1308 1310 1312 1314 1317 1319 1321 1324 1326 1328 1330 1333 1335 1338 1339 1340 1343 1345 1347 1348 1350 1352 1352 1351 1351 1352 1354 1357 1357 1355 1353 1352 1353 1355 1354 1352 1352 1353 1352 1350 1350 1349 1349 1348 1347 1346 1345 1344 1342 1340 1339 1338 1336 1335 1334 1333 1332 1331 1331 1330
1284 1285 1286 1287 1288 1288 1290 1292 1294 1295 1296 1298 1300 1302 1304 1305 1308 1310 1313 1315 1317 1320 1322 1324 1326 1329 1332 1334 1335 1337 1339 1341 1342 1345 1347 1348 1348 1347 1347 1348 1350 1352 1353 1353 1350 1348 1348 1351 1350 1347 1347 1348 1346 1345 1344 1344 1343 1342 1342 1341 1339 1338 1337 1335 1333 1331 1329 1328 1327 1326 1325 1324 1323 1322
1279 1280 1281 1282 1283 1284 1286 1287 1289 1290 1292 1294 1296 1298 1299 1301 1303 1306 1309 1311 1313 1315 1318 1321 1324 1326 1329 1331 1332 1334 1335 1337 1340 1342 1344 1344 1344 1344 1344 1345 1347 1349 1350 1350 1348 1344 1344 1347 1345 1342 1342 1342 1340 1339 1339 1338 1338 1337 1336 1335 1334 1333 1331 1329 1327 1325 1323 1321 1320 1319 1317 1316 1315 1314
1273 1273 1275 1276 1278 1279 1280 1282 1284 1286 1288 1290 1292 1294 1295 1297 1299 1302 1305 1308 1310 1312 1315 1319 1322 1324 1327 1328 1329 1330 1332 1335 1338 1339 1340 1341 1341 1340 1340 1341 1343 1346 1346 1346 1345 1341 1340 1342 1340 1337 1337 1336 1333 1332 1333 1332 1332 1331 1331 1330 1328 1326 1324 1322 1320 1318 1316 1314 1312 1311 1309 1307 1306 1306
1267 1267 1269 1272 1273 1273 1275 1278 1280 1282 1284 1286 1287 1289 1291 1293 1295 1298 1302 1306 1309 1310 1313 1316 1319 1322 1324 1326 1326 1327 1329 1332 1334 1335 1336 1337 1337 1336 1337 1339 1340 1341 1342 1342 1342 1339 1337 1338 1336 1331 1330 1329 1326 1325 1326 1326 1326 1325 1324 1323 1321 1319 1317 1316 1313 1311 1309 1307 1304 1302 1301 1300 1299 1299
1262 1263 1266 1269 1269 1270 1271 1274 1276 1278 1279 1281 1283 1285 1287 1289 1292 1295 1299 1303 1307 1309 1311 1314 1317 1319 1321 1322 1322 1323 1326 1329 1331 1332 1332 1333 1333 1333 1335 1336 1337 1337 1337 1338 1339 1336 1334 1334 1331 1327 1322 1319 1318 1319 1319 1319 1318 1318 1317 1316 1315 1313 1311 1309 1307 1304 1301 1299 1296 1294 1292 1292 1293 1292
1258 1259 1263 1265 1266 1267 1268 1270 1273 1274 1275 1277 1279 1281 1284 1286 1289 1292 1296 1300 1303 1306 1308 1311 1314 1315 1317 1319 1319 1321 1324 1326 1327 1329 1329 1330 1330 1331 1333 1333 1333 1332 1332 1333 1335 1333 1331 1329 1328 1325 1319 1312 1308 1310 1312 1312 1312 1313 1312 1310 1308 1306 1304 1301 1299 1297 1294 1291 1289 1286 1285 1285 1286 1285
1254 1257 1259 1261 1262 1264 1266 1268 1271 1272 1272 1274 1277 1279 1281 1284 1286 1290 1294 1297 1300 1303 1305 1308 1310 1312 1315 1317 1318 1320 1322 1323 1324 1326 1326 1327 1328 1328 1330 1330 1329 1329 1329 1330 1331 1330 1327 1325 1324 1322 1320 1313 1305 1303 1305 1306 1308 1308 1307 1304 1301 1297 1295 1293 1290 1288 1286 1284 1282 1280 1278 1278 1278 1278
1252 1254 1255 1257 1259 1261 1263 1266 1268 1270 1271 1272 1274 1277 1279 1282 1285 1289 1293 1296 1298 1301 1304 1306 1309 1311 1314 1315 1316 1317 1319 1320 1322 1323 1324 1325 1325 1326 1326 1326 1325 1326 1327 1328 1328 1326 1323 1321 1320 1318 1317 1314 1307 1302 1299 1300 1302 1303 1301 1297 1294 1290 1288 1285 1282 1280 1278 1276 1275 1273 1271 1270 1269 1269
1249 1251 1252 1254 1257 1259 1261 1263 1266 1269 1270 1271 1273 1277 1279 1281 1285 1288 1291 1294 1296 1299 1302 1305 1308 1310 1312 1313 1314 1315 1317 1318 1320 1321 1322 1322 1323 1323 1323 1323 1323 1324 1325 1325 1324 1322 1319 1318 1317 1315 1314 1311 1307 1303 1298 1294 1295 1297 1295 1292 1288 1284 1282 1280 1276 1273 1272 1269 1267 1265 1264 1262 1260 1260
1246 1249 1251 1253 1255 1257 1260 1261 1264 1268 1269 1270 1273 1277 1279 1280 1283 1286 1289 1292 1295 1298 1301 1304 1306 1308 1309 1311 1312 1313 1315 1316 1318 1319 1319 1320 1320 1320 1320 1321 1321 1321 1322 1321 1319 1317 1315 1314 1314 1313 1312 1309 1305 1302 1297 1291 1289 1289 1288 1286 1283 1279 1278 1276 1272 1269 1267 1264 1261 1258 1256 1253 1251 1251
1245 1247 1249 1252 1254 1256 1258 1260 1264 1267 1268 1269 1274 1277 1278 1279 1282 1285 1288 1291 1293 1297 1299 1302 1304 1306 1307 1309 1310 1311 1313 1315 1316 1316 1317 1317 1317 1317 1318 1318 1318 1318 1318 1317 1316 1314 1312 1311 1311 1311 1309 1307 1304 1299 1294 1289 1286 1285 1283 1279 1277 1275 1274 1272 1268 1265 1262 1259 1255 1252 1249 1246 1243 1242
1244 1246 1249 1251 1253 1255 1258 1260 1263 1265 1267 1270 1274 1276 1276 1277 1281 1284 1287 1290 1292 1295 1298 1300 1302 1304 1305 1307 1309 1310 1312 1313 1313 1314 1314 1314 1315 1315 1316 1316 1316 1315 1315 1314 1313 1312 1310 1309 1309 1308 1306 1305 1302 1298 1293 1287 1283 1283 1281 1276 1271 1269 1269 1268 1265 1261 1257 1253 1249 1246 1244 1241 1237 1235
1244 1246 1249 1251 1253 1255 1258 1260 1262 1264 1267 1270 1273 1274 1275 1278 1281 1283 1286 1288 1291 1294 1296 1298 1300 1302 1304 1306 1307 1308 1310 1311 1311 1312 1312 1313 1313 1313 1313 1313 1313 1313 1312 1311 1310 1309 1308 1307 1306 1305 1303 1301 1299 1296 1293 1287 1280 1279 1279 1276 1269 1264 1263 1263 1261 1257 1253 1248 1244 1240 1238 1234 1230 1227
1244 1246 1249 1251 1253 1255 1257 1260 1262 1264 1267 1269 1271 1273 1276 1278 1280 1283 1285 1288 1290 1293 1295 1296 1298 1300 1303 1304 1306 1307 1308 1309 1309 1310 1311 1311 1311 1311 1310 1310 1310 1309 1309 1308 1308 1307 1305 1304 1303 1301 1299 1298 1295 1292 1290 1286 1279 1275 1274 1274 1269 1262 1259 1257 1255 1252 1250 1244 1238 1233 1229 1226 1222 1218
1244 1247 1249 1251 1253 1255 1257 1259 1262 1264 1266 1269 1271 1274 1276 1278 1280 1283 1285 1287 1289 1291 1293 1296 1298 1300 1301 1303 1304 1305 1306 1307 1308 1309 1309 1309 1309 1308 1308 1307 1307 1306 1306 1306 1305 1304 1303 1301 1300 1299 1297 1294 1292 1289 1286 1282 1278 1274 1270 1269 1266 1261 1256 1253 1249 1246 1245 1240 1232 1225 1221 1217 1213 1209
1245 1247 1249 1251 1253 1255 1257 1259 1262 1264 1266 1269 1272 1274 1276 1278 1280 1282 1284 1286 1288 1291 1293 1295 1297 1298 1300 1301 1303 1304 1305 1306 1307 1307 1307 1307 1307 1307 1306 1305 1304 1304 1303 1303 1302 1302 1301 1299 1297 1296 1294 1291 1289 1287 1284 1278 1275 1273 1269 1265 1261 1257 1253 1251 1246 1241 1239 1234 1226 1217 1211 1207 1204 1200
1246 1248 1250 1252 1254 1256 1258 1259 1262 1264 1267 1269 1272 1274 1276 1278 1279 1281 1283 1285 1288 1290 1292 1294 1296 1297 1299 1300 1301 1303 1304 1304 1305 1305 1305 1305 1305 1304 1304 1303 1303 1302 1300 1300 1299 1298 1298 1297 1295 1292 1291 1288 1286 1284 1282 1277 1271 1268 1266 1262 1258 1253 1249 1246 1242 1237 1234 1230 1223 1213 1203 1196 1193 1192
1247 1249 1251 1253 1255 1257 1259 1260 1262 1265 1267 1270 1272 1274 1276 1277 1279 1281 1283 1285 1287 1290 1291 1293 1295 1296 1298 1299 1300 1301 1302 1303 1303 1303 1304 1303 1303 1302 1302 1301 1300 1300 1298 1297 1297 1296 1294 1293 1291 1288 1286 1283 1280 1278 1278 1275 1270 1264 1261 1259 1255 1251 1245 1241 1237 1232 1228 1224 1220 1212 1201 1189 1183 1182
1248 1250 1251 1253 1255 1257 1259 1261 1263 1266 1268 1270 1272 1274 1275 1277 1279 1281 1283 1285 1287 1289 1291 1293 1294 1295 1297 1298 1299 1300 1301 1301 1302 1302 1302 1301 1301 1300 1300 1299 1298 1297 1297 1296 1294 1293 1292 1290 1288 1285 1281 1278 1274 1271 1270 1271 1269 1264 1259 1255 1252 1248 1241 1236 1231 1227 1222 1218 1214 1209 1201 1189 1179 1176
1250 1251 1253 1254 1256 1258 1260 1262 1264 1266 1268 1270 1272 1274 1275 1277 1279 1281 1283 1285 1287 1288 1290 1292 1293 1294 1296 1297 1298 1298 1299 1300 1300 1300 1300 1300 1299 1299 1298 1297 1296 1295 1295 1294 1293 1292 1290 1288 1286 1283 1279 1275 1272 1267 1263 1264 1266 1265 1260 1253 1247 1244 1239 1232 1225 1220 1217 1213 1209 1204 1199 1190 1179 1173
1251 1252 1254 1255 1257 1259 1261 1263 1265 1267 1269 1270 1272 1273 1275 1277 1279 1281 1283 1284 1286 1288 1289 1291 1292 1293 1294 1295 1296 1297 1298 1298 1299 1299 1298 1298 1298 1297 1296 1295 1295 1294 1293 1292 1292 1290 1288 1286 1284 1281 1278 1274 1271 1265 1259 1255 1256 1260 1260 1254 1246 1240 1236 1230 1223 1216 1211 1207 1203 1199 1195 1188 1180 1173
1253 1254 1255 1256 1258 1260 1262 1264 1265 1267 1269 1270 1271 1272 1274 1276 1278 1280 1282 1283 1285 1287 1288 1290 1291 1292 1293 1294 1295 1296 1297 1297 1297 1297 1297 1297 1296 1295 1295 1294 1293 1292 1291 1290 1289 1288 1286 1284 1282 1280 1277 1273 1270 1266 1261 1254 1250 1251 1254 1252 1246 1239 1233 1229 1223 1215 1209 1204 1198 1192 1187 1182 1177 1172
1254 1255 1256 1258 1259 1261 1262 1264 1266 1267 1269 1270 1271 1272 1274 1276 1278 1279 1281 1282 1284 1286 1287 1288 1290 1291 1292 1293 1294 1294 1295 1295 1295 1295 1295 1295 1294 1294 1293 1292 1291 1290 1289 1288 1287 1285 1284 1282 1280 1277 1275 1271 1268 1264 1260 1254 1248 1246 1246 1246 1245 1240 1234 1228 1222 1215 1208 1203 1196 1188 1181 1175 1170 1166
1255 1256 1257 1258 1260 1261 1263 1264 1266 1267 1268 1269 1270 1272 1273 1275 1277 1279 1280 1282 1283 1285 1286 1287 1288 1289 1290 1291 1292 1293 1293 1293 1293 1293 1293 1293 1292 1292 1291 1290 1289 1288 1286 1285 1284 1282 1281 1280 1278 1275 1272 1269 1265 1261 1256 1251 1246 1242 1241 1240 1240 1238 1234 1229 1224 1217 1209 1203 1197 1189 1181 1175 1169 1164
1255 1256 1257 1259 1260 1261 1263 1264 1265 1266 1267 1268 1270 1271 1273 1275 1276 1278 1279 1281 1282 1283 1284 1286 1287 1288 1289 1290 1290 1291 1291 1291 1291 1291 1291 1291 1290 1290 1289 1287 1286 1285 1284 1282 1281 1279 1278 1276 1274 1271 1268 1265 1261 1257 1253 1249 1244 1239 1236 1234 1233 1233 1231 1227 1223 1218 1211 1204 1198 1191 1183 1176 1170 1164
1256 1257 1258 1259 1260 1261 1262 1263 1264 1265 1266 1268 1269 1271 1272 1274 1275 1277 1278 1279 1281 1282 1283 1284 1286 1287 1287 1288 1289 1289 1289 1289 1289 1289 1289 1288 1288 1287 1286 1285 1284 1283 1281 1279 1277 1276 1274 1272 1270 1267 1264 1261 1259 1255 1251 1247 1242 1238 1234 1230 1227 1225 1224 1222 1219 1216 1211 1206 1200 1194 1188 1182 1174 1167
1257 1257 1258 1259 1260 1261 1262 1263 1264 1265 1266 1267 1268 1270 1272 1273 1275 1276 1277 1278 1280 1281 1282 1283 1284 1285 1286 1286 1287 1287 1287 1287 1287 1287 1286 1286 1285 1285 1284 1283 1282 1280 1279 1276 1274 1272 1270 1268 1266 1264 1260 1257 1255 1252 1248 1244 1240 1236 1232 1228 1224 1221 1218 1215 1211 1209 1207 1203 1198 1193 1188 1184 1178 1171
1257 1258 1259 1259 1260 1261 1261 1262 1263 1264 1265 1266 1267 1269 1271 1272 1274 1275 1276 1278 1279 1280 1281 1282 1283 1284 1284 1284 1285 1285 1285 1285 1285 1284 1284 1283 1283 1282 1281 1280 1278 1277 1276 1274 1271 1269 1267 1265 1263 1261 1258 1255 1252 1250 1246 1243 1239 1235 1230 1227 1223 1219 1215 1211 1207 1203 1199 1197 1195 1190 1185 1179 1174 1170